This demonstration page uses our WeatherBlox Daily Observations layout. Learn more.

Left ArrowRight Arrow

44.8408, -93.29828

Hourly Observations for June 15, 2015

Temp ( °F °C ) Dew Point ( °F °C ) Humidity (%) Winds ( mph kmh ) Pressure ( in mb ) Visibility ( mi km ) Precip ( " mm )
12:53 am 00:53 Cloudy 76 24.4 62 16.7 62 62 W 8 13 29.86 1011 10 16 0.00 0.00
1:53 am 01:53 Mostly Cloudy 75 23.9 63 17.2 66 66 Calm 29.84 1011 10 16 0.00 0.00
2:53 am 02:53 Mostly Cloudy 73 22.8 65 18.3 76 76 W 6 9 29.85 1011 10 16 0.00 0.00
3:53 am 03:53 Mostly Cloudy 71 21.7 65 18.3 81 81 W 7 11 29.86 1011 10 16 0.00 0.00
4:53 am 04:53 Mostly Cloudy 68 20 63 17.2 84 84 NNW 7 11 29.88 1012 10 16 0.00 0.00
5:53 am 05:53 Cloudy 67 19.4 61 16.1 81 81 NNW 9 15 29.90 1013 10 16 0.00 0.00
6:53 am 06:53 Cloudy 66 18.9 61 16.1 84 84 NNW 14 22 29.92 1013 10 16 0.00 0.00
7:53 am 07:53 Cloudy 66 18.9 60 15.6 81 81 N 12 19 29.93 1014 10 16 0.00 0.00
8:53 am 08:53 Cloudy 68 20 59 15 73 73 N 15 24 29.96 1015 10 16 0.00 0.00
9:53 am 09:53 Cloudy 71 21.7 58 14.4 63 63 NNW 13 20 29.99 1016 10 16 0.00 0.00
10:53 am 10:53 Mostly Cloudy 73 22.8 55 12.8 53 53 N 12 19 30.00 1016 10 16 0.00 0.00
11:53 am 11:53 Mostly Cloudy 74 23.3 53 11.7 48 48 N 9 15 30.00 1016 10 16 0.00 0.00
12:53 pm 12:53 Cloudy 75 23.9 50 10 41 41 N 13 20 30.00 1016 10 16 0.00 0.00
1:53 pm 13:53 Cloudy 76 24.4 53 11.7 45 45 NW 14 22 29.99 1016 10 16 0.00 0.00
2:53 pm 14:53 Cloudy 76 24.4 50 10 40 40 N 16 26 30.01 1016 10 16 0.00 0.00
3:53 pm 15:53 Cloudy 76 24.4 49 9.4 39 39 NW 15 24 30.01 1016 10 16 0.00 0.00
4:53 pm 16:53 Cloudy 75 24 46 8 36 36 NW 12 19 29.97 1015 10 16 0.00 0.00
5:53 pm 17:53 Mostly Cloudy 76 24.4 48 8.9 37 37 NW 14 22 30.01 1016 10 16 0.00 0.00
6:53 pm 18:53 Partly Cloudy 75 23.9 45 7.2 34 34 NNW 14 22 30.01 1016 10 16 0.00 0.00
7:53 pm 19:53 Mostly Sunny 74 23.3 45 7.2 36 36 NNW 13 20 30.03 1017 10 16 0.00 0.00
8:53 pm 20:53 Sunny 71 21.7 46 7.8 41 41 NW 9 15 30.05 1018 10 16 0.00 0.00
9:53 pm 21:53 Clear 70 21.1 47 8.3 44 44 NNW 13 20 30.08 1019 10 16 0.00 0.00
10:53 pm 22:53 Clear 68 20 48 8.9 49 49 NNW 8 13 30.10 1019 10 16 0.00 0.00
11:53 pm 23:53 Clear 66 18.9 48 8.9 52 52 NNW 8 13 30.13 1020 10 16 0.00 0.00

Powered by AerisWeather